"Datum/tijd (MEZT)";"astronomisch [cm]";"verwachting RWS";"waterstand [cm]"
2024-05-01 01:00;20;11;18
2024-05-01 01:10;16;8;14
2024-05-01 01:20;13;5;11
2024-05-01 01:30;9;3;8
2024-05-01 01:40;5;0;5
2024-05-01 01:50;2;-2;2
2024-05-01 02:00;-2;-5;-1
2024-05-01 02:10;-5;-7;-3
2024-05-01 02:20;-8;-10;-6
2024-05-01 02:30;-12;-12;-9
2024-05-01 02:40;-14;-14;-11
2024-05-01 02:50;-17;-16;-13
2024-05-01 03:00;-19;-17;-15
2024-05-01 03:10;-21;-18;-16
2024-05-01 03:20;-23;-19;-17
2024-05-01 03:30;-24;-20;-18
2024-05-01 03:40;-25;-20;-18
2024-05-01 03:50;-26;-20;-19
2024-05-01 04:00;-26;-20;-19
2024-05-01 04:10;-26;-19;-20
2024-05-01 04:20;-26;-19;-20
2024-05-01 04:30;-26;-19;-20
2024-05-01 04:40;-26;-18;-20
2024-05-01 04:50;-26;-18;-20
2024-05-01 05:00;-25;-18;-19
2024-05-01 05:10;-25;-18;-19
2024-05-01 05:20;-25;-18;-19
2024-05-01 05:30;-25;-18;-20
2024-05-01 05:40;-25;-18;-20
2024-05-01 05:50;-25;-18;-19
2024-05-01 06:00;-25;-17;-19
2024-05-01 06:10;-24;-16;-18
2024-05-01 06:20;-23;-15;-17
2024-05-01 06:30;-22;-13;-15
2024-05-01 06:40;-20;-11;-12
2024-05-01 06:50;-17;-7;-9
2024-05-01 07:00;-13;-1;-4
2024-05-01 07:10;-9;6;1
2024-05-01 07:20;-4;16;9
2024-05-01 07:30;1;28;18
2024-05-01 07:40;8;40;28
2024-05-01 07:50;15;51;38
2024-05-01 08:00;23;58;49
2024-05-01 08:10;32;68;59
2024-05-01 08:20;41;76;68
2024-05-01 08:30;50;84;77
2024-05-01 08:40;60;89;85
2024-05-01 08:50;69;94;91
2024-05-01 09:00;78;90;97
2024-05-01 09:10;85;93;101
2024-05-01 09:20;92;95;104
2024-05-01 09:30;97;97;106
2024-05-01 09:40;101;97;107
2024-05-01 09:50;103;98;107
2024-05-01 10:00;104;98;107
2024-05-01 10:10;104;98;106
2024-05-01 10:20;103;98;105
2024-05-01 10:30;102;97;104
2024-05-01 10:40;99;95;103
2024-05-01 10:50;97;94;100
2024-05-01 11:00;94;92;97
2024-05-01 11:10;91;90;94
2024-05-01 11:20;88;89;91
2024-05-01 11:30;84;87;88
2024-05-01 11:40;81;84;86
2024-05-01 11:50;78;81;84
2024-05-01 12:00;74;76;80
2024-05-01 12:10;71;71;76
2024-05-01 12:20;67;65;72
2024-05-01 12:30;64;59;67
2024-05-01 12:40;60;53;62
2024-05-01 12:50;57;47;57
2024-05-01 13:00;53;42;52
2024-05-01 13:10;49;37;48
2024-05-01 13:20;46;33;44
2024-05-01 13:30;42;28;40
2024-05-01 13:40;39;24;36
2024-05-01 13:50;35;20;33
2024-05-01 14:00;31;17;30
2024-05-01 14:10;28;14;26
2024-05-01 14:20;24;11;23
2024-05-01 14:30;21;9;21
2024-05-01 14:40;18;7;18
2024-05-01 14:50;15;6;15
2024-05-01 15:00;13;16;13
2024-05-01 15:10;10;13;11
2024-05-01 15:20;8;11;9
2024-05-01 15:30;6;9;7
2024-05-01 15:40;4;8;4
2024-05-01 15:50;2;6;4
2024-05-01 16:00;1;5;2
2024-05-01 16:10;-1;4;1
2024-05-01 16:20;-3;4;0
2024-05-01 16:30;-4;3;0
2024-05-01 16:40;-6;3;0
2024-05-01 16:50;-7;2;0
2024-05-01 17:00;-8;2;-1
2024-05-01 17:10;-9;2;-1
2024-05-01 17:20;-10;2;-2
2024-05-01 17:30;-11;2;-2
2024-05-01 17:40;-11;1;-2
2024-05-01 17:50;-12;1;-2
2024-05-01 18:00;-12;1;-2
2024-05-01 18:10;-12;1;-2
2024-05-01 18:20;-12;1;-3
2024-05-01 18:30;-12;1;-3
2024-05-01 18:40;-11;1;-3
2024-05-01 18:50;-10;1;-4
2024-05-01 19:00;-9;2;-3
2024-05-01 19:10;-7;3;-2
2024-05-01 19:20;-5;4;-1
2024-05-01 19:30;-3;6;1
2024-05-01 19:40;0;9;3
2024-05-01 19:50;3;13;6
2024-05-01 20:00;6;17;10
2024-05-01 20:10;11;23;15
2024-05-01 20:20;15;30;21
2024-05-01 20:30;20;39;28
2024-05-01 20:40;26;48;35
2024-05-01 20:50;32;57;44
2024-05-01 21:00;38;65;52
2024-05-01 21:10;44;72;61
2024-05-01 21:20;51;79;68
2024-05-01 21:30;56;84;76
2024-05-01 21:40;62;89;82
2024-05-01 21:50;67;91;86
2024-05-01 22:00;71;93;90
2024-05-01 22:10;74;94;93
2024-05-01 22:20;77;94;94
2024-05-01 22:30;79;93;94
2024-05-01 22:40;80;92;94
2024-05-01 22:50;80;91;92
2024-05-01 23:00;80;89;90
2024-05-01 23:10;79;88;88
2024-05-01 23:20;77;86;86
2024-05-01 23:30;75;84;83
2024-05-01 23:40;72;82;81
2024-05-01 23:50;69;79;78
2024-05-02 00:00;66;77;74
2024-05-02 00:10;62;74;71
2024-05-02 00:20;58;69;67
2024-05-02 00:30;54;64;63
2024-05-02 00:40;51;59;59
2024-05-02 00:50;47;53;56
2024-05-02 01:00;43;48;52
2024-05-02 01:10;40;43;48
2024-05-02 01:20;36;38;44
2024-05-02 01:30;33;34;40
2024-05-02 01:40;30;29;36
2024-05-02 01:50;26;25;33
2024-05-02 02:00;23;26;29
2024-05-02 02:10;20;23;25
2024-05-02 02:20;16;20;22
2024-05-02 02:30;12;18;19
2024-05-02 02:40;9;15;16
2024-05-02 02:50;5;13;14
2024-05-02 03:00;2;11;11
2024-05-02 03:10;-2;8;9
2024-05-02 03:20;-5;6;7
2024-05-02 03:30;-8;3;4
2024-05-02 03:40;-11;1;2
2024-05-02 03:50;-14;-1;-1
2024-05-02 04:00;-17;-3;-3
2024-05-02 04:10;-19;-4;-5
2024-05-02 04:20;-21;-6;-6
2024-05-02 04:30;-23;-7;-7
2024-05-02 04:40;-24;-7;-8
2024-05-02 04:50;-25;-8;-8
2024-05-02 05:00;-26;-8;-8
2024-05-02 05:10;-26;-8;-8
2024-05-02 05:20;-27;-8;-8
2024-05-02 05:30;-27;-7;-7
2024-05-02 05:40;-26;-7;-7
2024-05-02 05:50;-26;-7;-7
2024-05-02 06:00;-26;-7;-6
2024-05-02 06:10;-26;-6;-6
2024-05-02 06:20;-26;-6;-5
2024-05-02 06:30;-26;-6;-4
2024-05-02 06:40;-26;-6;-4
2024-05-02 06:50;-25;-5;-3
2024-05-02 07:00;-25;-5;-2
2024-05-02 07:10;-24;-4;-1
2024-05-02 07:20;-23;-2;1
2024-05-02 07:30;-21;0;3
2024-05-02 07:40;-20;2;5
2024-05-02 07:50;-17;6;9
2024-05-02 08:00;-14;11;13
2024-05-02 08:10;-11;17;18
2024-05-02 08:20;-6;26;24
2024-05-02 08:30;-1;36;30
2024-05-02 08:40;5;46;38
2024-05-02 08:50;11;56;47
2024-05-02 09:00;18;64;55
2024-05-02 09:10;26;73;63
2024-05-02 09:20;34;81;72
2024-05-02 09:30;42;88;81
2024-05-02 09:40;50;95;89
2024-05-02 09:50;57;100;96
2024-05-02 10:00;65;104;102
2024-05-02 10:10;71;107;107
2024-05-02 10:20;77;110;111
2024-05-02 10:30;82;112;114
2024-05-02 10:40;86;114;116
2024-05-02 10:50;89;115;116
2024-05-02 11:00;92;116;117
2024-05-02 11:10;93;116;117
2024-05-02 11:20;94;116;117
2024-05-02 11:30;95;116;116
2024-05-02 11:40;94;115;116
2024-05-02 11:50;94;114;115
2024-05-02 12:00;92;113;112
2024-05-02 12:10;91;112;112
2024-05-02 12:20;89;111;110
2024-05-02 12:30;87;111;108
2024-05-02 12:40;84;110;107
2024-05-02 12:50;82;108;106
2024-05-02 13:00;79;106;104
2024-05-02 13:10;76;103;101
2024-05-02 13:20;73;99;98
2024-05-02 13:30;70;94;95
2024-05-02 13:40;68;88;92
2024-05-02 13:50;65;82;87
2024-05-02 14:00;62;77;
2024-05-02 14:10;59;72;
2024-05-02 14:20;55;67;
2024-05-02 14:30;52;62;
2024-05-02 14:40;48;57;
2024-05-02 14:50;45;53;
2024-05-02 15:00;41;49;
2024-05-02 15:10;37;45;
2024-05-02 15:20;34;41;
2024-05-02 15:30;30;37;
2024-05-02 15:40;27;34;
2024-05-02 15:50;24;32;
2024-05-02 16:00;21;29;
2024-05-02 16:10;18;27;
2024-05-02 16:20;16;25;
2024-05-02 16:30;13;23;
2024-05-02 16:40;10;21;
2024-05-02 16:50;8;19;
2024-05-02 17:00;6;18;
2024-05-02 17:10;3;16;
2024-05-02 17:20;1;15;
2024-05-02 17:30;-1;14;
2024-05-02 17:40;-2;13;
2024-05-02 17:50;-4;13;
2024-05-02 18:00;-5;12;
2024-05-02 18:10;-6;12;
2024-05-02 18:20;-7;12;
2024-05-02 18:30;-8;12;
2024-05-02 18:40;-8;12;
2024-05-02 18:50;-8;12;
2024-05-02 19:00;-9;11;
2024-05-02 19:10;-9;11;
2024-05-02 19:20;-9;11;
2024-05-02 19:30;-9;10;
2024-05-02 19:40;-8;10;
2024-05-02 19:50;-8;10;
2024-05-02 20:00;-7;10;
2024-05-02 20:10;-7;10;
2024-05-02 20:20;-5;11;
2024-05-02 20:30;-4;12;
2024-05-02 20:40;-2;13;
2024-05-02 20:50;0;16;
2024-05-02 21:00;2;18;
2024-05-02 21:10;5;22;
2024-05-02 21:20;8;26;
2024-05-02 21:30;12;32;
2024-05-02 21:40;16;39;
2024-05-02 21:50;20;48;
2024-05-02 22:00;25;57;
2024-05-02 22:10;30;66;
2024-05-02 22:20;35;74;
2024-05-02 22:30;40;82;
2024-05-02 22:40;45;89;
2024-05-02 22:50;50;95;
2024-05-02 23:00;55;99;
2024-05-02 23:10;59;103;
2024-05-02 23:20;63;104;
2024-05-02 23:30;66;105;
2024-05-02 23:40;69;104;
2024-05-02 23:50;71;103;
2024-05-03 00:00;73;101;
2024-05-03 00:10;73;100;
2024-05-03 00:20;73;98;
2024-05-03 00:30;73;96;
2024-05-03 00:40;71;94;
2024-05-03 00:50;69;92;
2024-05-03 01:00;67;90;
2024-05-03 01:10;65;87;
2024-05-03 01:20;62;85;
2024-05-03 01:30;59;81;
2024-05-03 01:40;56;78;
2024-05-03 01:50;53;73;
2024-05-03 02:00;50;69;
2024-05-03 02:10;47;64;
2024-05-03 02:20;44;59;
2024-05-03 02:30;40;55;
2024-05-03 02:40;37;51;
2024-05-03 02:50;34;47;
2024-05-03 03:00;30;43;
2024-05-03 03:10;27;40;
2024-05-03 03:20;23;37;
2024-05-03 03:30;19;34;
2024-05-03 03:40;15;32;
2024-05-03 03:50;12;29;
2024-05-03 04:00;8;27;
2024-05-03 04:10;4;24;
2024-05-03 04:20;0;22;
2024-05-03 04:30;-3;19;
2024-05-03 04:40;-7;17;
2024-05-03 04:50;-10;15;
2024-05-03 05:00;-13;13;
2024-05-03 05:10;-16;11;
2024-05-03 05:20;-19;9;
2024-05-03 05:30;-21;8;
2024-05-03 05:40;-22;7;
2024-05-03 05:50;-24;6;
2024-05-03 06:00;-24;5;
2024-05-03 06:10;-25;5;
2024-05-03 06:20;-25;5;
2024-05-03 06:30;-25;5;
2024-05-03 06:40;-25;5;
2024-05-03 06:50;-25;6;
2024-05-03 07:00;-25;6;
2024-05-03 07:10;-25;6;
2024-05-03 07:20;-25;6;
2024-05-03 07:30;-25;6;
2024-05-03 07:40;-25;5;
2024-05-03 07:50;-24;5;
2024-05-03 08:00;-24;4;
2024-05-03 08:10;-24;4;
2024-05-03 08:20;-23;4;
2024-05-03 08:30;-23;4;
2024-05-03 08:40;-22;5;
2024-05-03 08:50;-20;6;
2024-05-03 09:00;-18;8;
2024-05-03 09:10;-16;11;
2024-05-03 09:20;-13;15;
2024-05-03 09:30;-9;20;
2024-05-03 09:40;-5;27;
2024-05-03 09:50;0;36;
2024-05-03 10:00;6;47;
2024-05-03 10:10;12;58;
2024-05-03 10:20;19;68;
2024-05-03 10:30;26;77;
2024-05-03 10:40;33;87;
2024-05-03 10:50;40;96;
2024-05-03 11:00;47;104;
2024-05-03 11:10;54;111;
2024-05-03 11:20;60;116;
2024-05-03 11:30;67;120;
2024-05-03 11:40;72;122;
2024-05-03 11:50;78;124;
2024-05-03 12:00;82;125;
2024-05-03 12:10;86;125;
2024-05-03 12:20;90;125;
2024-05-03 12:30;92;125;
2024-05-03 12:40;94;125;
2024-05-03 12:50;95;125;
2024-05-03 13:00;96;124;
2024-05-03 13:10;96;124;
2024-05-03 13:20;95;123;
2024-05-03 13:30;94;122;
2024-05-03 13:40;92;121;
2024-05-03 13:50;90;120;
2024-05-03 14:00;88;119;
2024-05-03 14:10;86;117;
2024-05-03 14:20;84;115;
2024-05-03 14:30;81;113;
2024-05-03 14:40;78;110;
2024-05-03 14:50;75;106;
2024-05-03 15:00;72;101;
2024-05-03 15:10;69;96;
2024-05-03 15:20;66;91;
2024-05-03 15:30;62;86;
2024-05-03 15:40;58;81;
2024-05-03 15:50;54;76;
2024-05-03 16:00;50;72;
2024-05-03 16:10;46;67;
2024-05-03 16:20;43;63;
2024-05-03 16:30;39;59;
2024-05-03 16:40;35;56;
2024-05-03 16:50;32;53;
2024-05-03 17:00;28;50;
2024-05-03 17:10;25;47;
2024-05-03 17:20;21;45;
2024-05-03 17:30;18;43;
2024-05-03 17:40;15;41;
2024-05-03 17:50;12;39;
2024-05-03 18:00;9;37;
2024-05-03 18:10;7;35;
2024-05-03 18:20;4;34;
2024-05-03 18:30;2;32;
2024-05-03 18:40;1;30;
2024-05-03 18:50;-1;29;
2024-05-03 19:00;-2;28;
2024-05-03 19:10;-3;26;
2024-05-03 19:20;-3;25;
2024-05-03 19:30;-4;24;
2024-05-03 19:40;-4;22;
2024-05-03 19:50;-5;21;
2024-05-03 20:00;-5;20;
2024-05-03 20:10;-6;18;
2024-05-03 20:20;-6;17;
2024-05-03 20:30;-7;16;
2024-05-03 20:40;-7;14;
2024-05-03 20:50;-7;13;
2024-05-03 21:00;-7;12;
2024-05-03 21:10;-8;11;
2024-05-03 21:20;-8;10;
2024-05-03 21:30;-8;9;
2024-05-03 21:40;-7;8;
2024-05-03 21:50;-7;8;
2024-05-03 22:00;-6;8;
2024-05-03 22:10;-5;9;
2024-05-03 22:20;-3;10;
2024-05-03 22:30;-1;11;
2024-05-03 22:40;2;13;
2024-05-03 22:50;6;16;
2024-05-03 23:00;10;19;
2024-05-03 23:10;14;24;
2024-05-03 23:20;19;29;
2024-05-03 23:30;25;36;
2024-05-03 23:40;30;45;
2024-05-03 23:50;36;55;
2024-05-04 00:00;42;65;
2024-05-04 00:10;48;74;
2024-05-04 00:20;54;81;
2024-05-04 00:30;59;88;
2024-05-04 00:40;64;93;
2024-05-04 00:50;68;96;
2024-05-04 01:00;71;98;
2024-05-04 01:10;74;98;
2024-05-04 01:20;75;97;
2024-05-04 01:30;76;95;
2024-05-04 01:40;76;91;
2024-05-04 01:50;76;88;
2024-05-04 02:00;74;84;
2024-05-04 02:10;73;81;
2024-05-04 02:20;70;77;
2024-05-04 02:30;68;73;
2024-05-04 02:40;65;69;
2024-05-04 02:50;62;64;
2024-05-04 03:00;59;60;
2024-05-04 03:10;56;56;
2024-05-04 03:20;53;52;
2024-05-04 03:30;49;47;
2024-05-04 03:40;46;43;
2024-05-04 03:50;42;39;
2024-05-04 04:00;38;35;
2024-05-04 04:10;34;31;
2024-05-04 04:20;30;28;
2024-05-04 04:30;26;25;
2024-05-04 04:40;22;22;
2024-05-04 04:50;17;19;
2024-05-04 05:00;13;17;
2024-05-04 05:10;8;14;
2024-05-04 05:20;4;11;
2024-05-04 05:30;0;8;
2024-05-04 05:40;-4;5;
2024-05-04 05:50;-8;3;
2024-05-04 06:00;-11;0;
2024-05-04 06:10;-14;-3;
2024-05-04 06:20;-17;-5;
2024-05-04 06:30;-19;-7;
2024-05-04 06:40;-21;-9;
2024-05-04 06:50;-22;-10;
2024-05-04 07:00;-23;-12;
2024-05-04 07:10;-24;-12;
2024-05-04 07:20;-24;-13;
2024-05-04 07:30;-24;-13;
2024-05-04 07:40;-24;-13;
2024-05-04 07:50;-24;-14;
2024-05-04 08:00;-23;-14;
2024-05-04 08:10;-23;-14;
2024-05-04 08:20;-23;-14;
2024-05-04 08:30;-23;-15;
2024-05-04 08:40;-24;-15;
2024-05-04 08:50;-24;-16;
2024-05-04 09:00;-24;-17;
2024-05-04 09:10;-24;-18;
2024-05-04 09:20;-25;-19;
2024-05-04 09:30;-25;-19;
2024-05-04 09:40;-25;-20;
2024-05-04 09:50;-25;-20;
2024-05-04 10:00;-24;-20;
2024-05-04 10:10;-23;-20;
2024-05-04 10:20;-21;-19;
2024-05-04 10:30;-19;-17;
2024-05-04 10:40;-16;-15;
2024-05-04 10:50;-12;-12;
2024-05-04 11:00;-7;-8;
2024-05-04 11:10;-2;-2;
2024-05-04 11:20;4;6;
2024-05-04 11:30;10;16;
2024-05-04 11:40;17;29;
2024-05-04 11:50;25;41;
2024-05-04 12:00;32;53;
2024-05-04 12:10;40;64;
2024-05-04 12:20;48;75;
2024-05-04 12:30;56;85;
2024-05-04 12:40;64;94;
2024-05-04 12:50;72;102;
2024-05-04 13:00;79;108;
2024-05-04 13:10;85;111;
2024-05-04 13:20;91;113;
2024-05-04 13:30;95;114;
2024-05-04 13:40;99;114;
2024-05-04 13:50;102;113;
2024-05-04 14:00;103;112;
2024-05-04 14:10;104;111;
2024-05-04 14:20;104;110;
2024-05-04 14:30;103;108;
2024-05-04 14:40;102;106;
2024-05-04 14:50;100;105;
2024-05-04 15:00;98;103;
2024-05-04 15:10;96;101;
2024-05-04 15:20;93;98;
2024-05-04 15:30;90;96;
2024-05-04 15:40;87;93;
2024-05-04 15:50;84;90;
2024-05-04 16:00;81;85;
2024-05-04 16:10;77;80;
2024-05-04 16:20;73;74;
2024-05-04 16:30;69;69;
2024-05-04 16:40;65;63;
2024-05-04 16:50;60;58;
2024-05-04 17:00;56;53;
2024-05-04 17:10;52;49;
2024-05-04 17:20;47;45;
2024-05-04 17:30;43;41;
2024-05-04 17:40;39;37;
2024-05-04 17:50;35;34;
2024-05-04 18:00;31;30;
2024-05-04 18:10;27;27;
2024-05-04 18:20;23;24;
2024-05-04 18:30;19;22;
2024-05-04 18:40;16;20;
2024-05-04 18:50;13;18;
2024-05-04 19:00;10;16;
2024-05-04 19:10;7;14;
2024-05-04 19:20;5;13;
2024-05-04 19:30;4;11;
2024-05-04 19:40;2;10;
2024-05-04 19:50;1;9;
2024-05-04 20:00;0;8;
2024-05-04 20:10;0;7;
2024-05-04 20:20;-1;6;
2024-05-04 20:30;-1;5;
2024-05-04 20:40;-2;4;
2024-05-04 20:50;-2;4;
2024-05-04 21:00;-3;3;
2024-05-04 21:10;-3;2;
2024-05-04 21:20;-4;1;
2024-05-04 21:30;-5;1;
2024-05-04 21:40;-6;0;
2024-05-04 21:50;-7;-1;
2024-05-04 22:00;-8;-2;
2024-05-04 22:10;-9;-3;
2024-05-04 22:20;-10;-4;
2024-05-04 22:30;-11;-5;
2024-05-04 22:40;-12;-6;
2024-05-04 22:50;-12;-6;
2024-05-04 23:00;-13;-6;
2024-05-04 23:10;-12;-6;
2024-05-04 23:20;-11;-5;
2024-05-04 23:30;-10;-4;
2024-05-04 23:40;-7;-2;
2024-05-04 23:50;-4;0;
2024-05-05 00:00;0;2;
2024-05-05 00:10;4;5;
2024-05-05 00:20;10;10;
2024-05-05 00:30;16;16;
2024-05-05 00:40;22;24;
2024-05-05 00:50;29;35;
2024-05-05 01:00;37;48;
2024-05-05 01:10;44;60;
2024-05-05 01:20;52;71;
2024-05-05 01:30;59;81;
2024-05-05 01:40;66;90;
2024-05-05 01:50;72;96;
2024-05-05 02:00;77;101;
2024-05-05 02:10;81;103;
2024-05-05 02:20;84;104;
2024-05-05 02:30;86;102;
2024-05-05 02:40;86;100;
2024-05-05 02:50;86;98;
2024-05-05 03:00;85;95;
2024-05-05 03:10;83;92;
2024-05-05 03:20;80;89;
2024-05-05 03:30;77;87;
2024-05-05 03:40;74;83;
2024-05-05 03:50;71;80;
2024-05-05 04:00;67;75;
2024-05-05 04:10;64;70;
2024-05-05 04:20;60;64;
2024-05-05 04:30;57;58;
2024-05-05 04:40;53;52;
2024-05-05 04:50;48;47;
2024-05-05 05:00;44;42;
2024-05-05 05:10;39;37;
2024-05-05 05:20;34;32;
2024-05-05 05:30;29;28;
2024-05-05 05:40;24;24;
2024-05-05 05:50;19;20;
2024-05-05 06:00;14;17;
2024-05-05 06:10;9;13;
2024-05-05 06:20;4;10;
2024-05-05 06:30;0;7;
2024-05-05 06:40;-5;4;
2024-05-05 06:50;-8;1;
2024-05-05 07:00;-12;-2;
2024-05-05 07:10;-15;-5;
2024-05-05 07:20;-17;-7;
2024-05-05 07:30;-19;-9;
2024-05-05 07:40;-21;-11;
2024-05-05 07:50;-22;-13;
2024-05-05 08:00;-22;-14;
2024-05-05 08:10;-23;-15;
2024-05-05 08:20;-23;-15;
2024-05-05 08:30;-23;-15;
2024-05-05 08:40;-23;-15;
2024-05-05 08:50;-22;-15;
2024-05-05 09:00;-22;-14;
2024-05-05 09:10;-22;-13;
2024-05-05 09:20;-22;-13;
2024-05-05 09:30;-22;-12;
2024-05-05 09:40;-22;-12;
2024-05-05 09:50;-23;-12;
2024-05-05 10:00;-24;-13;
2024-05-05 10:10;-25;-13;
2024-05-05 10:20;-25;-14;
2024-05-05 10:30;-26;-15;
2024-05-05 10:40;-27;-16;
2024-05-05 10:50;-27;-16;
2024-05-05 11:00;-27;-17;
2024-05-05 11:10;-27;-16;
2024-05-05 11:20;-26;-15;
2024-05-05 11:30;-24;-14;
2024-05-05 11:40;-22;-13;
2024-05-05 11:50;-19;-10;
2024-05-05 12:00;-15;-7;
2024-05-05 12:10;-10;-4;
2024-05-05 12:20;-5;2;
2024-05-05 12:30;1;9;
2024-05-05 12:40;9;18;
2024-05-05 12:50;16;31;
2024-05-05 13:00;25;45;
2024-05-05 13:10;34;58;
2024-05-05 13:20;44;70;
2024-05-05 13:30;54;83;
2024-05-05 13:40;64;94;
2024-05-05 13:50;73;104;
2024-05-05 14:00;82;112;
2024-05-05 14:10;91;118;
2024-05-05 14:20;98;122;
2024-05-05 14:30;103;124;
2024-05-05 14:40;108;125;
2024-05-05 14:50;111;125;
2024-05-05 15:00;113;124;
2024-05-05 15:10;113;123;
2024-05-05 15:20;112;122;
2024-05-05 15:30;111;121;
2024-05-05 15:40;109;120;
2024-05-05 15:50;106;119;
2024-05-05 16:00;104;117;
2024-05-05 16:10;101;116;
2024-05-05 16:20;98;115;
2024-05-05 16:30;94;113;
2024-05-05 16:40;91;111;
2024-05-05 16:50;87;107;
2024-05-05 17:00;83;103;
2024-05-05 17:10;79;96;
2024-05-05 17:20;75;89;
2024-05-05 17:30;70;81;
2024-05-05 17:40;66;74;
2024-05-05 17:50;61;67;
2024-05-05 18:00;56;61;
2024-05-05 18:10;51;56;
2024-05-05 18:20;46;51;
2024-05-05 18:30;41;46;
2024-05-05 18:40;37;42;
2024-05-05 18:50;32;37;
2024-05-05 19:00;28;33;
2024-05-05 19:10;23;29;
2024-05-05 19:20;19;26;
2024-05-05 19:30;16;23;
2024-05-05 19:40;13;21;
2024-05-05 19:50;10;20;
2024-05-05 20:00;7;18;
2024-05-05 20:10;5;17;
2024-05-05 20:20;4;16;
2024-05-05 20:30;3;16;
2024-05-05 20:40;2;15;
2024-05-05 20:50;1;15;
2024-05-05 21:00;1;14;
2024-05-05 21:10;1;14;
2024-05-05 21:20;1;14;
2024-05-05 21:30;0;14;
2024-05-05 21:40;0;14;
2024-05-05 21:50;0;14;
2024-05-05 22:00;-1;14;
2024-05-05 22:10;-2;13;
2024-05-05 22:20;-3;13;
2024-05-05 22:30;-4;12;
2024-05-05 22:40;-5;12;
2024-05-05 22:50;-6;11;
2024-05-05 23:00;-8;10;
2024-05-05 23:10;-9;9;
2024-05-05 23:20;-11;9;
2024-05-05 23:30;-12;8;
2024-05-05 23:40;-13;8;
2024-05-05 23:50;-14;7;
2024-05-06 00:00;-14;7;
2024-05-06 00:10;-14;7;
2024-05-06 00:20;-13;8;
2024-05-06 00:30;-12;8;
2024-05-06 00:40;-10;9;
2024-05-06 00:50;-7;11;
2024-05-06 01:00;-3;13;
2024-05-06 01:10;2;16;
2024-05-06 01:20;8;19;
2024-05-06 01:30;15;25;
2024-05-06 01:40;23;32;
2024-05-06 01:50;31;43;
2024-05-06 02:00;40;57;
2024-05-06 02:10;50;70;
2024-05-06 02:20;59;83;
2024-05-06 02:30;68;94;
2024-05-06 02:40;76;104;
2024-05-06 02:50;83;111;
2024-05-06 03:00;89;116;
2024-05-06 03:10;93;119;
2024-05-06 03:20;96;119;
2024-05-06 03:30;97;118;
2024-05-06 03:40;96;116;
2024-05-06 03:50;95;114;
2024-05-06 04:00;93;111;
2024-05-06 04:10;90;109;
2024-05-06 04:20;87;106;
2024-05-06 04:30;83;102;
2024-05-06 04:40;80;98;
2024-05-06 04:50;76;94;
2024-05-06 05:00;73;88;
2024-05-06 05:10;69;81;
2024-05-06 05:20;65;74;
2024-05-06 05:30;60;67;
2024-05-06 05:40;56;61;
2024-05-06 05:50;50;55;
2024-05-06 06:00;45;49;
2024-05-06 06:10;39;44;
2024-05-06 06:20;34;39;
2024-05-06 06:30;28;34;
2024-05-06 06:40;22;29;
2024-05-06 06:50;16;24;
2024-05-06 07:00;11;20;
2024-05-06 07:10;6;17;
2024-05-06 07:20;1;13;
2024-05-06 07:30;-3;10;
2024-05-06 07:40;-7;7;
2024-05-06 07:50;-11;4;
2024-05-06 08:00;-14;1;
2024-05-06 08:10;-16;-2;
2024-05-06 08:20;-19;-4;
2024-05-06 08:30;-20;-6;
2024-05-06 08:40;-21;-8;
2024-05-06 08:50;-22;-9;
2024-05-06 09:00;-22;-11;
2024-05-06 09:10;-22;-11;
2024-05-06 09:20;-22;-11;
2024-05-06 09:30;-22;-11;
2024-05-06 09:40;-21;-10;
2024-05-06 09:50;-21;-9;
2024-05-06 10:00;-21;-8;
2024-05-06 10:10;-20;-7;
2024-05-06 10:20;-20;-6;
2024-05-06 10:30;-20;-5;
2024-05-06 10:40;-21;-6;
2024-05-06 10:50;-21;-6;
2024-05-06 11:00;-22;-7;
2024-05-06 11:10;-23;-9;
2024-05-06 11:20;-24;-10;
2024-05-06 11:30;-25;-10;
2024-05-06 11:40;-26;-11;
2024-05-06 11:50;-27;-11;
2024-05-06 12:00;-27;-11;
2024-05-06 12:10;-27;-11;
2024-05-06 12:20;-26;-10;
2024-05-06 12:30;-25;-10;
2024-05-06 12:40;-23;-9;
2024-05-06 12:50;-21;-7;
2024-05-06 13:00;-17;-5;
2024-05-06 13:10;-13;-2;
2024-05-06 13:20;-8;3;
2024-05-06 13:30;-1;10;
2024-05-06 13:40;7;20;
2024-05-06 13:50;15;33;
2024-05-06 14:00;25;48;
2024-05-06 14:10;36;63;
2024-05-06 14:20;48;77;
2024-05-06 14:30;59;90;
2024-05-06 14:40;71;103;
2024-05-06 14:50;82;113;
2024-05-06 15:00;92;121;
2024-05-06 15:10;101;127;
2024-05-06 15:20;108;131;
2024-05-06 15:30;113;132;
2024-05-06 15:40;117;133;
2024-05-06 15:50;118;132;
2024-05-06 16:00;119;131;
2024-05-06 16:10;118;130;
2024-05-06 16:20;116;129;
2024-05-06 16:30;113;128;
2024-05-06 16:40;110;127;
2024-05-06 16:50;107;125;
2024-05-06 17:00;104;124;
2024-05-06 17:10;100;123;
2024-05-06 17:20;97;121;
2024-05-06 17:30;93;118;
2024-05-06 17:40;90;115;
2024-05-06 17:50;85;109;
2024-05-06 18:00;81;103;
2024-05-06 18:10;76;95;
2024-05-06 18:20;71;87;
2024-05-06 18:30;66;79;
2024-05-06 18:40;60;72;
2024-05-06 18:50;55;65;
2024-05-06 19:00;50;60;
2024-05-06 19:10;44;55;
2024-05-06 19:20;39;50;
2024-05-06 19:30;34;45;
2024-05-06 19:40;29;40;
2024-05-06 19:50;24;35;
2024-05-06 20:00;20;31;
2024-05-06 20:10;16;28;
2024-05-06 20:20;13;25;
2024-05-06 20:30;9;23;
2024-05-06 20:40;7;22;
2024-05-06 20:50;5;21;
2024-05-06 21:00;3;20;
2024-05-06 21:10;2;20;
2024-05-06 21:20;1;19;
2024-05-06 21:30;1;19;
2024-05-06 21:40;0;20;
2024-05-06 21:50;0;20;
2024-05-06 22:00;1;20;
2024-05-06 22:10;1;21;
2024-05-06 22:20;1;21;
2024-05-06 22:30;1;21;
2024-05-06 22:40;1;21;
2024-05-06 22:50;0;21;
2024-05-06 23:00;0;21;
2024-05-06 23:10;-1;20;
2024-05-06 23:20;-2;20;
2024-05-06 23:30;-3;19;
2024-05-06 23:40;-4;18;
2024-05-06 23:50;-5;17;
2024-05-07 00:00;-7;17;
2024-05-07 00:10;-8;16;
2024-05-07 00:20;-9;15;
2024-05-07 00:30;-10;15;
2024-05-07 00:40;-11;15;
2024-05-07 00:50;-12;15;
2024-05-07 01:00;-12;15;
2024-05-07 01:10;-12;15;
2024-05-07 01:20;-11;16;
2024-05-07 01:30;-9;17;
2024-05-07 01:40;-7;19;
2024-05-07 01:50;-3;21;
2024-05-07 02:00;1;24;
2024-05-07 02:10;7;28;
2024-05-07 02:20;14;34;
2024-05-07 02:30;23;42;
2024-05-07 02:40;32;53;
2024-05-07 02:50;43;67;
2024-05-07 03:00;54;81;
2024-05-07 03:10;65;94;
2024-05-07 03:20;75;106;
2024-05-07 03:30;84;115;
2024-05-07 03:40;92;122;
2024-05-07 03:50;98;127;
2024-05-07 04:00;103;130;
2024-05-07 04:10;105;131;
2024-05-07 04:20;105;130;
2024-05-07 04:30;104;129;
2024-05-07 04:40;102;126;
2024-05-07 04:50;100;124;
2024-05-07 05:00;96;121;
2024-05-07 05:10;93;118;
2024-05-07 05:20;89;115;
2024-05-07 05:30;86;111;
2024-05-07 05:40;82;107;
2024-05-07 05:50;79;101;
2024-05-07 06:00;75;94;
2024-05-07 06:10;70;87;
2024-05-07 06:20;66;79;
2024-05-07 06:30;60;72;
2024-05-07 06:40;54;65;
2024-05-07 06:50;48;58;
2024-05-07 07:00;42;52;
2024-05-07 07:10;36;47;
2024-05-07 07:20;29;41;
2024-05-07 07:30;23;36;
2024-05-07 07:40;17;31;
2024-05-07 07:50;11;26;
2024-05-07 08:00;6;22;
2024-05-07 08:10;2;19;
2024-05-07 08:20;-3;15;
2024-05-07 08:30;-7;12;
2024-05-07 08:40;-10;9;
2024-05-07 08:50;-13;6;
2024-05-07 09:00;-16;3;
2024-05-07 09:10;-18;0;
2024-05-07 09:20;-19;-2;
2024-05-07 09:30;-20;-4;
2024-05-07 09:40;-21;-5;
2024-05-07 09:50;-21;-6;
2024-05-07 10:00;-21;-6;
2024-05-07 10:10;-21;-6;
2024-05-07 10:20;-20;-6;
2024-05-07 10:30;-20;-5;
2024-05-07 10:40;-19;-4;
2024-05-07 10:50;-19;-3;
2024-05-07 11:00;-18;-2;